This is the latest recevied weather packets stored in our database for station/object ES2ADF-5. If no packets are shown the sender has not sent any weather packets the latest 10 day(s).
| Time | Temp. | Humidity | Pressure | Rain* | Wind** | Luminosity | Snow |
|---|---|---|---|---|---|---|---|
| 1777801963 | 16.11° C | 61% | 1007.3 hPa | 0 mm | - | - | - |
| 1777801662 | 15.56° C | 61% | 1007.3 hPa | 0 mm | - | - | - |
| 1777801362 | 15.56° C | 63% | 1007.4 hPa | 0 mm | - | - | - |
| 1777801062 | 15.56° C | 62% | 1007.3 hPa | 0 mm | - | - | - |
| 1777800761 | 15.56° C | 62% | 1007.4 hPa | 0 mm | - | - | - |
| 1777800461 | 15° C | 62% | 1007.3 hPa | 0 mm | - | - | - |
| 1777800161 | 15° C | 62% | 1007.4 hPa | 0 mm | - | - | - |
| 1777799861 | 15° C | 62% | 1007.5 hPa | 0 mm | - | - | - |
| 1777799560 | 15° C | 62% | 1007.4 hPa | 0 mm | - | - | - |
| 1777799260 | 15° C | 61% | 1007.4 hPa | 0 mm | - | - | - |
| 1777798960 | 15.56° C | 60% | 1007.3 hPa | 0 mm | - | - | - |
| 1777798659 | 15.56° C | 61% | 1007.1 hPa | 0 mm | - | - | - |
| 1777798359 | 16.11° C | 61% | 1007.1 hPa | 0 mm | - | - | - |
| 1777798059 | 15.56° C | 61% | 1007.2 hPa | 0 mm | - | - | - |
| 1777797759 | 15.56° C | 63% | 1007.1 hPa | 0 mm | - | - | - |
| 1777797458 | 15.56° C | 64% | 1007.1 hPa | 0 mm | - | - | - |
| 1777797158 | 15.56° C | 65% | 1007.3 hPa | 0 mm | - | - | - |
| 1777796858 | 15° C | 66% | 1007 hPa | 0 mm | - | - | - |
| 1777796557 | 14.44° C | 66% | 1006.9 hPa | 0 mm | - | - | - |
| 1777796257 | 14.44° C | 68% | 1007 hPa | 0 mm | - | - | - |
| 1777795957 | 13.89° C | 70% | 1007 hPa | 0 mm | - | - | - |
| 1777795657 | 13.33° C | 70% | 1007 hPa | 0 mm | - | - | - |
| 1777795356 | 13.33° C | 71% | 1007.1 hPa | 0 mm | - | - | - |
| 1777795056 | 12.78° C | 72% | 1007.2 hPa | 0 mm | - | - | - |
| 1777794756 | 12.22° C | 73% | 1006.8 hPa | 0 mm | - | - | - |
* Rain latest hour (hover to see other rain measurements)
** Current wind speed in m/s (hover to see current wind gust speed)